Flag Weather past 2 weeks in Abbotsford, British Columbia, Canada

Now
46 °F

Rain. Mostly cloudy.


Feels Like: 43 °F
Forecast: 46 / 50 °F
Wind: 7 mph from Northeast

Location: Abbotsford

Current Time: Nov 21, 2014 at 11:32:12 AM

Latest Report: Nov 21, 2014 at 11:00 AM


Visibility: 10 mi

Pressure: 29.61 "Hg

Humidity: 100%

Dew point: 46 °F

Location of AbbotsfordLocation

Historic Weather in Abbotsford — Graph

°F

Abbotsford temperature yesterday

Maximum temperature yesterday: 46 °F (at 11:00 AM)
Minimum temperature yesterday: 41 °F (at 4:00 AM)
Average temperature yesterday: 44 °F

Past Weeks' High & Low Weather Summary

 TemperatureHumidityPressure
High63 °F (Nov 6, 11:00 AM)100% (Nov 7, 9:00 PM)30.58 "Hg (Nov 7, 9:00 PM)
Low25 °F (Nov 16, 3:00 AM)19% (Nov 13, 4:00 PM)29.65 "Hg (Nov 21, 10:00 AM)
Average41 °F62%30.19 "Hg
* Reported Nov 6 10:00 AM — Nov 21 10:00 AM, Abbotsford, Weather by CustomWeather, © 2014

Note: Actual official high and low records may vary slightly from our data, if they occured in-between our weather recording intervals... More about our weather records

Advertising

Abbotsford weather history for previous 24 hours

 ConditionsComfort  
Time TempWeatherWind HumidityBarometerVisibility
10:00 AM
Nov 21
46 °FLight rain. Mostly cloudy.5 mph100%29.65 "Hg20 mi
9:00 AM46 °FLight rain. Cloudy.6 mph100%29.67 "Hg15 mi
8:00 AM46 °FLight rain. Mostly cloudy.5 mph100%29.70 "Hg15 mi
7:00 AM45 °FLight rain. Overcast.5 mph100%29.71 "Hg10 mi
6:00 AM46 °FOvercast.5 mph100%29.74 "Hg10 mi
5:00 AM46 °FLight rain. Overcast.6 mph100%29.78 "Hg10 mi
4:00 AM46 °FLight rain. Fog.6 mph100%29.80 "Hg6 mi
3:00 AM46 °FLight rain. Fog.5 mph100%29.83 "Hg6 mi
2:00 AM45 °FLight rain. Fog.3 mph100%29.84 "Hg4 mi
1:00 AM46 °FLight rain. Fog.3 mph100%29.85 "Hg6 mi
12:00 AM46 °FLight rain. Fog.3 mph100%29.87 "Hg6 mi
11:00 PM
Nov 20
45 °FLight rain. Fog.5 mph100%29.89 "Hg6 mi
10:00 PM46 °FLight rain. Fog.5 mph100%29.89 "Hg6 mi
9:00 PM46 °FLight rain. Fog.2 mph100%29.90 "Hg6 mi
8:00 PM45 °FLight rain. Fog.2 mph100%29.90 "Hg6 mi
7:00 PM45 °FLight rain. Overcast.3 mph100%29.90 "Hg8 mi
6:00 PM45 °FLight rain. Fog.3 mph100%29.92 "Hg4 mi
5:00 PM45 °FLight rain. Fog.No wind100%29.93 "Hg4 mi
4:00 PM45 °FLight rain. Fog.3 mph100%29.93 "Hg6 mi
3:00 PM45 °FLight rain. Fog.3 mph100%29.93 "Hg4 mi
2:00 PM45 °FLight rain. Fog.3 mph100%29.94 "Hg4 mi
1:00 PM45 °FLight rain. Overcast.5 mph100%29.95 "Hg10 mi
12:00 PM45 °FMostly cloudy.5 mph93%29.96 "Hg10 mi
11:00 AM46 °FMostly cloudy.6 mph93%29.96 "Hg10 mi
Weather by CustomWeather, © 2014

See weather overviewHow to use our weather pages